User: anonymous   Login
Location: Brno
(49.2000°N, 16.6330°E)
Time: 14:32:03
(UTC+02:00)
Language:

RESURS DK-1 - Orbit

View from above orbital plane
View from above orbital plane
View from above satellite
View from above satellite

Ground track
Ground track

The orbit data is extracted from the following two-line orbital elements,

1 29228U 06021A   14295.15889656  .00001384  00000-0  11600-3 0  3521
2 29228 069.9377 041.8030 0004262 349.2184 078.3888 15.00894579462627
Epoch (UTC): 22 October 2014 03:48:48
Eccentricity: 0.0004262
inclination: 69.9377°
perigee height: 561 km
apogee height: 567 km
right ascension of ascending node: 41.8030°
argument of perigee: 349.2184°
revolutions per day: 15.00894579
mean anomaly at epoch: 78.3888°
orbit number at epoch: 46262

The dashed part of the orbit path shows where the satellite is in the earth's shadow,  

DLR